Volver al catálogo

STARLINK-1496

ActivoComunicacionesVLEO
NORAD 45780·PAYLOAD·🇺🇸 United States

Lanzado Jun 13, 2020 desde Cape Canaveral Space Force Station

Loading…

Próximos Pases (próximas 24 horas)

TLE

ActualizadoSource: CelesTrak SupGP

Época: Sep 14, 2026, 21:43 UTC

1 45780C 20038BC  26257.90534722  .00086578  00000+0  36537-3 0  2578
2 45780  53.0371 327.1436 0003352 337.6764 140.9159 15.84659927    16

Sigue STARLINK-1496 en tiempo real con AllMySat

Download on the App Store